Huntsville, AL

3:30 PM CST on February 22, 2017 (GMT -0600)
Huntsville International

Weather History for KHSV - April, 2013

Change the Weather History Date:

Saturday, April 27, 2013

  Actual Average Record
Temperature  
Mean Temperature 65 °F 65 °F  
Max Temperature 75 °F 77 °F 90 °F (1986)
Min Temperature 55 °F 54 °F 36 °F (1919)
Degree Days  
Heating Degree Days 0 3  
Month to date heating degree days 162 147  
Since 1 July heating degree days 2970 2967  
Cooling Degree Days 0 3  
Month to date cooling degree days 51 49  
Year to date cooling degree days 57 63  
Growing Degree Days 15 (Base 50)    
Moisture  
Dew Point 57 °F    
Average Humidity 77    
Maximum Humidity 93    
Minimum Humidity 61    
Precipitation  
Precipitation 0.08 in 0.15 in 3.50 in (2011)
Month to date precipitation 3.44 3.87  
Year to date precipitation 20.87 18.81  
Snow  
Snow 0.00 in - - ()
Month to date snowfall 0.0  
Since 1 July snowfall 0.7  
Snow Depth 0.00 in    
Sea Level Pressure  
Sea Level Pressure 30.14 in    
Wind  
Wind Speed 10 mph (SE)    
Max Wind Speed 20 mph    
Max Gust Speed 23 mph    
Visibility 10 miles    
Events Rain , Thunderstorm    
T = Trace of Precipitation, MM = Missing Value Source: NWS Daily Summary

Daily Weather History Graph

Daily Weather History Graph

Search for Another Location

Airport or City:

Trip Planner

Search our weather history database for the weather conditions in past years. The results will help you decide how hot, cold, wet, or windy it might be!

Date:

Astronomy

Apr. 27, 2013 Rise Set
Actual Time 6:00 AM CDT 7:28 PM CDT
Civil Twilight 5:34 AM CDT 7:55 PM CDT
Nautical Twilight 5:02 AM CDT 8:27 PM CDT
Astronomical Twilight 4:28 AM CDT 9:01 PM CDT
Moon 9:53 PM CDT (4/27) 7:22 AM CDT (4/27)
Length of Visible Light 14h 21m
Length of Day
13h 28m
Waning Gibbous, 95% of the Moon is Illuminated
Apr 27
Waning Gibbous
May 2
Last Quarter
May 9
New
May 17
First Quarter
May 24
Full

Hourly Weather History & Observations

Time (CDT) Temp. Dew Point Humidity Pressure Visibility Wind Dir Wind Speed Gust Speed Precip Events Conditions
12:53 AM 55.9 °F 53.1 °F 90% 30.26 in 10.0 mi SE 5.8 mph - 0.00 in   Overcast
1:53 AM 55.9 °F 53.1 °F 90% 30.28 in 10.0 mi NNW 10.4 mph - 0.00 in   Overcast
2:18 AM 55.4 °F 51.8 °F 88% 30.28 in 6.0 mi NW 4.6 mph - 0.00 in Rain , Thunderstorm Thunderstorms and Rain
2:33 AM 55.4 °F 53.6 °F 94% 30.26 in 4.0 mi North 9.2 mph - 0.03 in Rain Light Rain
2:53 AM 55.0 °F 53.1 °F 93% 30.24 in 10.0 mi ENE 8.1 mph - 0.04 in   Overcast
3:53 AM 55.9 °F 53.1 °F 90% 30.24 in 8.0 mi SSE 5.8 mph - 0.02 in Rain Light Rain
4:53 AM 55.9 °F 53.1 °F 90% 30.21 in 10.0 mi SE 12.7 mph - 0.02 in Rain Light Rain
5:53 AM 55.9 °F 52.0 °F 87% 30.18 in 10.0 mi ESE 12.7 mph - 0.00 in   Overcast
6:53 AM 57.0 °F 52.0 °F 83% 30.18 in 10.0 mi ESE 13.8 mph - N/A   Overcast
7:53 AM 57.9 °F 53.1 °F 84% 30.18 in 10.0 mi SE 13.8 mph 21.9 mph N/A   Overcast
8:53 AM 60.1 °F 54.0 °F 80% 30.19 in 10.0 mi SSE 10.4 mph - N/A   Overcast
9:53 AM 62.1 °F 55.0 °F 78% 30.18 in 10.0 mi SE 9.2 mph 21.9 mph N/A   Overcast
10:53 AM 64.9 °F 55.9 °F 73% 30.17 in 10.0 mi SE 10.4 mph - N/A   Overcast
11:53 AM 70.0 °F 57.9 °F 65% 30.16 in 10.0 mi SSE 10.4 mph - N/A   Overcast
12:53 PM 71.1 °F 57.0 °F 61% 30.14 in 10.0 mi SE 8.1 mph - 0.00 in Rain Light Rain
1:53 PM 72.0 °F 62.1 °F 71% 30.11 in 10.0 mi East 5.8 mph - 0.00 in   Overcast
2:53 PM 71.1 °F 63.0 °F 75% 30.10 in 10.0 mi NNW 8.1 mph - N/A   Overcast
3:53 PM 73.0 °F 63.0 °F 71% 30.07 in 10.0 mi NE 4.6 mph - 0.00 in Rain Light Rain
4:53 PM 73.0 °F 62.1 °F 68% 30.05 in 10.0 mi SSE 5.8 mph - 0.00 in Rain Light Rain
5:53 PM 73.0 °F 59.0 °F 61% 30.04 in 10.0 mi SSE 10.4 mph - 0.00 in   Overcast
6:53 PM 71.1 °F 57.0 °F 61% 30.01 in 10.0 mi SE 9.2 mph - N/A   Mostly Cloudy
7:53 PM 69.1 °F 59.0 °F 70% 30.02 in 10.0 mi South 5.8 mph - N/A   Mostly Cloudy
8:53 PM 66.0 °F 59.0 °F 78% 30.02 in 10.0 mi South 9.2 mph - N/A   Mostly Cloudy
9:53 PM 66.9 °F 62.1 °F 84% 30.01 in 10.0 mi SSE 11.5 mph - N/A   Mostly Cloudy
10:53 PM 66.9 °F 62.1 °F 84% 29.99 in 10.0 mi SSE 11.5 mph - N/A   Mostly Cloudy
11:53 PM 68.0 °F 61.0 °F 78% 29.99 in 10.0 mi SSE 13.8 mph - N/A   Overcast